DW9758 Weather Reports


Display with metric or nautical units.
time (UTC)temp
F
wind
direction
speed
MPH
gust
MPH
rain 1hr
in
rain 24hr
in
rain mn
in
humidity
%
barometer
mb
20221001203100 51 299 6.0 16.0 0.13 0.74 0.74 76 1020.5
20221001201556 51 138 2.0 11.0 0.13 0.72 0.72 76 1020.3
20221001200057 51 262 6.0 20.0 0.11 0.68 0.68 76 1019.8
20221001194557 51 213 3.0 12.0 0.10 0.63 0.63 74 1019.5
20221001193047 50 209 3.0 12.0 0.11 0.61 0.61 73 1019.4
20221001191550 50 239 5.0 13.0 0.11 0.59 0.59 73 1019.4
20221001190047 49 209 2.0 8.0 0.11 0.56 0.56 73 1019.4
20221001184550 49 207 2.0 11.0 0.09 0.52 0.52 73 1019.0
20221001183041 49 171 1.0 7.0 0.10 0.50 0.50 73 1018.7
20221001181540 49 238 2.0 9.0 0.10 0.48 0.48 73 1018.5
20221001180037 49 232 2.0 6.0 0.11 0.46 0.46 73 1018.4
20221001174538 49 231 2.0 5.0 0.09 0.43 0.43 74 1018.1
20221001173033 48 225 0.0 3.0 0.07 0.39 0.39 74 1017.9
20221001171539 48 248 0.0 3.0 0.07 0.38 0.38 74 1017.7
20221001170040 48 165 0.0 2.0 0.05 0.35 0.35 74 1017.5
20221001164538 48 257 0.0 4.0 0.06 0.33 0.33 74 1017.5
20221001163033 48 237 0.0 6.0 0.09 0.32 0.32 74 1017.5
20221001161539 48 252 2.0 6.0 0.09 0.31 0.31 74 1017.4
20221001160031 47 232 4.0 8.0 0.12 0.30 0.30 74 1017.6
20221001154531 47 237 3.0 9.0 0.12 0.27 0.27 74 1017.4
20221001153034 47 259 1.0 8.0 0.11 0.24 0.24 74 1017.3
20221001151529 47 233 4.0 12.0 0.09 0.20 0.20 75 1017.2
20221001150024 48 176 1.0 4.0 0.07 0.17 0.17 74 1017.0
20221001144531 48 70 0.0 2.0 0.06 0.14 0.14 74 1016.5
20221001143027 48 72 0.0 1.0 0.06 0.13 0.13 75 1016.6
20221001141524 48 72 0.0 1.0 0.06 0.11 0.11 75 1016.5
20221001140020 48 13 2.0 3.0 0.07 0.10 0.10 75 1016.4
20221001134518 48 307 2.0 10.0 0.06 0.09 0.09 77 1016.4
20221001133010 48 247 5.0 10.0 0.06 0.07 0.07 78 1016.4
20221001131520 50 204 0.0 3.0 0.04 0.06 0.06 76 1016.1
20221001130049 49 359 1.0 3.0 0.02 0.03 0.03 76 1016.0
20221001124535 49 323 1.0 3.0 0.02 0.03 0.03 76 1015.9
20221001123035 49 321 0.0 4.0 0.01 0.02 0.02 75 1015.9
20221001121531 48 319 1.0 3.0 0.00 0.02 0.02 75 1015.9
20221001120031 47 317 2.0 5.0 0.00 0.02 0.02 75 1016.0
20221001114535 47 82 0.0 2.0 0.00 0.02 0.02 75 1016.1
20221001113027 46 257 0.0 2.0 0.00 0.02 0.02 74 1016.0
20221001111523 46 312 1.0 5.0 0.01 0.02 0.02 74 1016.2
20221001110033 46 234 0.0 3.0 0.01 0.02 0.02 74 1016.1
20221001104533 46 53 0.0 3.0 0.01 0.04 0.02 74 1016.1
20221001103022 46 256 0.0 3.0 0.01 0.04 0.02 74 1016.0
20221001101532 46 232 2.0 6.0 0.00 0.03 0.01 74 1016.0
20221001100020 46 317 0.0 3.0 0.01 0.03 0.01 73 1015.5
20221001094516 46 318 0.0 0.0 0.01 0.03 0.01 74 1015.6
20221001093012 45 318 0.0 0.0 0.01 0.03 0.01 74 1015.4
20221001091523 45 318 0.0 0.0 0.01 0.03 0.01 74 1015.5
20221001044505 38 318 0.0 0.0 0.00 0.03 0.00 75 1015.6
20221001043008 38 318 0.0 0.0 0.00 0.03 0.00 75 1015.7
20221001041504 37 318 0.0 0.0 0.00 0.03 0.00 75 1015.6
20221001040002 38 317 0.0 0.0 0.00 0.03 0.00 75 1015.4
20221001034501 38 317 0.0 0.0 0.00 0.03 0.00 75 1015.5
20221001033051 38 317 0.0 0.0 0.00 0.03 0.00 76 1015.4
20221001031548 38 317 0.0 1.0 0.00 0.03 0.00 75 1015.3
20221001030105 38 317 0.0 1.0 0.00 0.03 0.00 76 1015.4
20221001024545 39 317 0.0 1.0 0.00 0.03 0.00 76 1015.5
20221001023044 39 318 0.0 1.0 0.00 0.03 0.00 76 1015.6
20221001021543 39 317 0.0 3.0 0.00 0.03 0.00 76 1015.9
20221001020048 39 346 0.0 2.0 0.00 0.03 0.00 76 1015.8
20221001014538 39 250 0.0 0.0 0.00 0.03 0.00 76 1015.6
20221001013037 40 250 0.0 0.0 0.00 0.03 0.00 77 1015.9
20221001011544 40 249 0.0 0.0 0.00 0.03 0.00 77 1016.0
20221001010039 40 288 0.0 2.0 0.00 0.03 0.00 77 1015.5
20221001004526 41 288 0.0 1.0 0.00 0.03 0.00 76 1015.6
20221001003022 41 288 0.0 2.0 0.00 0.03 0.00 77 1015.7
20221001001520 41 288 0.0 0.0 0.00 0.03 0.00 77 1015.9
20221001000127 42 288 0.0 2.0 0.00 0.03 0.00 77 1015.7
20220930234520 42 288 1.0 2.0 0.00 0.03 0.00 77 1015.6
20220930233019 42 288 0.0 2.0 0.00 0.03 0.00 77 1015.5
20220930231514 42 287 0.0 1.0 0.00 0.03 0.00 78 1015.7
20220930230013 43 287 0.0 3.0 0.00 0.03 0.00 78 1015.4
20220930224511 44 288 0.0 2.0 0.00 0.04 0.00 77 1015.4
20220930223011 44 288 0.0 1.0 0.00 0.04 0.00 77 1015.5
20220930221509 45 286 0.0 2.0 0.00 0.04 0.00 77 1015.2
20220930220100 45 286 0.0 3.0 0.00 0.04 0.00 77 1014.7
20220930214556 45 259 2.0 4.0 0.00 0.04 0.04 77 1014.6
20220930213055 45 48 0.0 4.0 0.00 0.04 0.04 77 1014.4
20220930211556 45 57 1.0 3.0 0.00 0.04 0.04 77 1014.5
20220930204549 45 289 0.0 1.0 0.00 0.04 0.04 78 1014.8